Time,TemperatureF,DewpointF,PressureIn,WindDirection,WindDirectionDegrees,WindSpeedMPH,WindSpeedGustMPH,Humidity,HourlyPrecipIn,Conditions,Clouds,dailyrainin,SolarRadiationWatts/m^2,SoftwareType,DateUTC
2013-07-28 00:02:00,76.0,52.0,-100.00,North,351,10.0,16.0,43,0.00,,,0.00,0.000000,,2013-07-28 07:02:00,
2013-07-28 00:12:00,76.0,52.0,-100.00,North,351,10.0,16.0,43,0.00,,,0.00,0.000000,,2013-07-28 07:12:00,
2013-07-28 00:22:00,76.0,52.0,-100.00,North,351,10.0,16.0,43,0.00,,,0.00,0.000000,,2013-07-28 07:22:00,
2013-07-28 00:53:00,76.0,51.0,-100.00,NW,312,8.0,16.0,41,0.00,,,0.00,0.000000,,2013-07-28 07:53:00,
2013-07-28 01:02:00,76.0,51.0,-100.00,NW,312,8.0,16.0,41,0.00,,,0.00,0.000000,,2013-07-28 08:02:00,
2013-07-28 01:12:00,76.0,51.0,-100.00,NW,312,8.0,16.0,41,0.00,,,0.00,0.000000,,2013-07-28 08:12:00,
2013-07-28 01:22:00,76.0,51.0,-100.00,NW,312,8.0,16.0,41,0.00,,,0.00,0.000000,,2013-07-28 08:22:00,
2013-07-28 01:53:00,76.0,44.0,-100.00,WNW,294,4.0,13.0,32,0.00,,,0.00,0.000000,,2013-07-28 08:53:00,
2013-07-28 02:02:00,76.0,44.0,-100.00,WNW,294,4.0,13.0,32,0.00,,,0.00,0.000000,,2013-07-28 09:02:00,
2013-07-28 02:12:00,76.0,44.0,-100.00,WNW,294,4.0,13.0,32,0.00,,,0.00,0.000000,,2013-07-28 09:12:00,
2013-07-28 02:22:00,76.0,44.0,-100.00,WNW,294,4.0,13.0,32,0.00,,,0.00,0.000000,,2013-07-28 09:22:00,
2013-07-28 02:53:00,77.0,46.0,-100.00,SW,227,3.0,10.0,33,0.00,,,0.00,0.000000,,2013-07-28 09:53:00,
2013-07-28 03:02:00,77.0,46.0,-100.00,SW,227,3.0,10.0,33,0.00,,,0.00,0.000000,,2013-07-28 10:02:00,
2013-07-28 03:12:00,77.0,46.0,-100.00,SW,227,3.0,10.0,33,0.00,,,0.00,0.000000,,2013-07-28 10:12:00,
2013-07-28 03:22:00,77.0,46.0,-100.00,SW,227,3.0,10.0,33,0.00,,,0.00,0.000000,,2013-07-28 10:22:00,
2013-07-28 03:53:00,76.0,46.0,-100.00,West,267,1.0,8.0,34,0.00,,,0.00,0.000000,,2013-07-28 10:53:00,
2013-07-28 04:02:00,76.0,46.0,-100.00,West,267,1.0,8.0,34,0.00,,,0.00,0.000000,,2013-07-28 11:02:00,
2013-07-28 04:12:00,76.0,46.0,-100.00,West,267,1.0,8.0,34,0.00,,,0.00,0.000000,,2013-07-28 11:12:00,
2013-07-28 04:22:00,76.0,46.0,-100.00,West,267,1.0,8.0,34,0.00,,,0.00,0.000000,,2013-07-28 11:22:00,
2013-07-28 04:54:00,75.0,48.0,-100.00,NW,307,8.0,10.0,38,0.00,,,0.00,0.000000,,2013-07-28 11:54:00,
2013-07-28 05:02:00,75.0,48.0,-100.00,NW,307,8.0,10.0,38,0.00,,,0.00,0.000000,,2013-07-28 12:02:00,
2013-07-28 05:12:00,75.0,48.0,-100.00,NW,307,8.0,10.0,38,0.00,,,0.00,0.000000,,2013-07-28 12:12:00,
2013-07-28 05:22:00,75.0,48.0,-100.00,NW,307,8.0,10.0,38,0.00,,,0.00,0.000000,,2013-07-28 12:22:00,
2013-07-28 05:53:00,73.0,46.0,-100.00,NW,315,7.0,11.0,38,0.00,,,0.00,0.000000,,2013-07-28 12:53:00,
2013-07-28 06:02:00,73.0,46.0,-100.00,NW,315,7.0,11.0,38,0.00,,,0.00,0.000000,,2013-07-28 13:02:00,
2013-07-28 06:12:00,73.0,46.0,-100.00,NW,315,7.0,11.0,38,0.00,,,0.00,0.000000,,2013-07-28 13:12:00,
2013-07-28 06:22:00,73.0,46.0,-100.00,NW,315,7.0,11.0,38,0.00,,,0.00,0.000000,,2013-07-28 13:22:00,
2013-07-28 06:53:00,73.0,47.0,-100.00,NW,311,8.0,12.0,39,0.00,,,0.00,8.000000,,2013-07-28 13:53:00,
2013-07-28 07:02:00,73.0,47.0,-100.00,NW,311,8.0,12.0,39,0.00,,,0.00,8.000000,,2013-07-28 14:02:00,
2013-07-28 07:12:00,73.0,47.0,-100.00,NW,311,8.0,12.0,39,0.00,,,0.00,8.000000,,2013-07-28 14:12:00,
2013-07-28 07:22:00,73.0,47.0,-100.00,NW,311,8.0,12.0,39,0.00,,,0.00,8.000000,,2013-07-28 14:22:00,
2013-07-28 07:53:00,76.0,51.0,-100.00,NW,326,6.0,14.0,41,0.00,,,0.00,100.000000,,2013-07-28 14:53:00,
2013-07-28 08:02:00,76.0,51.0,-100.00,NW,326,6.0,14.0,41,0.00,,,0.00,100.000000,,2013-07-28 15:02:00,
2013-07-28 08:12:00,76.0,51.0,-100.00,NW,326,6.0,14.0,41,0.00,,,0.00,100.000000,,2013-07-28 15:12:00,
2013-07-28 08:22:00,76.0,51.0,-100.00,NW,326,6.0,14.0,41,0.00,,,0.00,100.000000,,2013-07-28 15:22:00,
2013-07-28 08:53:00,78.0,47.0,-100.00,North,4,5.0,8.0,34,0.00,,,0.00,261.000000,,2013-07-28 15:53:00,
2013-07-28 09:02:00,78.0,47.0,-100.00,North,4,5.0,8.0,34,0.00,,,0.00,261.000000,,2013-07-28 16:02:00,
2013-07-28 09:12:00,78.0,47.0,-100.00,North,4,5.0,8.0,34,0.00,,,0.00,261.000000,,2013-07-28 16:12:00,
2013-07-28 09:22:00,78.0,47.0,-100.00,North,4,5.0,8.0,34,0.00,,,0.00,261.000000,,2013-07-28 16:22:00,
2013-07-28 09:52:00,81.0,47.0,-100.00,North,9,4.0,9.0,31,0.00,,,0.00,462.000000,,2013-07-28 16:52:00,
2013-07-28 10:02:00,81.0,47.0,-100.00,North,9,4.0,9.0,31,0.00,,,0.00,462.000000,,2013-07-28 17:02:00,
2013-07-28 10:12:00,81.0,47.0,-100.00,North,9,4.0,9.0,31,0.00,,,0.00,462.000000,,2013-07-28 17:12:00,
2013-07-28 10:22:00,81.0,47.0,-100.00,North,9,4.0,9.0,31,0.00,,,0.00,462.000000,,2013-07-28 17:22:00,
2013-07-28 10:53:00,86.0,43.0,-100.00,SE,138,4.0,8.0,22,0.00,,,0.00,559.000000,,2013-07-28 17:53:00,
2013-07-28 11:52:00,88.0,43.0,-100.00,South,170,7.0,16.0,21,0.00,,,0.00,1035.000000,,2013-07-28 18:52:00,
2013-07-28 12:02:00,88.0,43.0,-100.00,South,170,7.0,16.0,21,0.00,,,0.00,1035.000000,,2013-07-28 19:02:00,
2013-07-28 12:12:00,88.0,43.0,-100.00,South,170,7.0,16.0,21,0.00,,,0.00,1035.000000,,2013-07-28 19:12:00,
2013-07-28 13:02:00,90.0,42.0,-100.00,SSE,166,10.0,20.0,19,0.00,,,0.00,1134.000000,,2013-07-28 20:02:00,
2013-07-28 14:22:00,89.0,40.0,-100.00,SSW,192,14.0,22.0,18,0.00,,,0.00,1179.000000,,2013-07-28 21:22:00,
2013-07-28 19:00:00,86.0,29.0,-100.00,South,190,16.0,29.0,13,0.00,,,0.00,312.000000,,2013-07-29 02:00:00,
2013-07-28 19:12:00,86.0,29.0,-100.00,South,190,16.0,29.0,13,0.00,,,0.00,312.000000,,2013-07-29 02:12:00,
2013-07-28 21:53:00,78.0,42.0,-100.00,WNW,291,4.0,14.0,28,0.00,,,0.00,0.000000,,2013-07-29 04:53:00,
2013-07-28 22:02:00,78.0,42.0,-100.00,WNW,291,4.0,14.0,28,0.00,,,0.00,0.000000,,2013-07-29 05:02:00,
2013-07-28 22:12:00,78.0,42.0,-100.00,WNW,291,4.0,14.0,28,0.00,,,0.00,0.000000,,2013-07-29 05:12:00,
2013-07-28 22:22:00,78.0,42.0,-100.00,WNW,291,4.0,14.0,28,0.00,,,0.00,0.000000,,2013-07-29 05:22:00,
2013-07-28 22:53:00,77.0,37.0,-100.00,WSW,253,2.0,14.0,24,0.00,,,0.00,0.000000,,2013-07-29 05:53:00,
2013-07-28 23:02:00,77.0,37.0,-100.00,WSW,253,2.0,14.0,24,0.00,,,0.00,0.000000,,2013-07-29 06:02:00,
2013-07-28 23:12:00,77.0,37.0,-100.00,WSW,253,2.0,14.0,24,0.00,,,0.00,0.000000,,2013-07-29 06:12:00,
2013-07-28 23:22:00,77.0,37.0,-100.00,WSW,253,2.0,14.0,24,0.00,,,0.00,0.000000,,2013-07-29 06:22:00,
2013-07-28 23:52:00,77.0,38.0,-100.00,SSW,211,2.0,9.0,25,0.00,,,0.00,0.000000,,2013-07-29 06:52:00,